• En Colombia
  • Lista de países
  • Para 7 días
  • Temperatura del agua
  • El tiempo en el mapa
  • Informadores
  • user-avatar
    Iniciar sesión

    Tiempo cada hora Algiers

    Hoy, 30 Marzo, Lunes

    Tiempo Temperatura Precipitaciones Viento Presión Humedad
    00:00 +12°C° 0 mm 2 mps 749 mmHg 75%
    01:00 +12°C° 0 mm 2 mps 748 mmHg 73%
    02:00 +12°C° 0 mm 2 mps 748 mmHg 70%
    03:00 +10°C° 0 mm 2 mps 747 mmHg 68%
    04:00 +12°C° 0 mm 2 mps 747 mmHg 67%
    05:00 +12°C° 0 mm 2 mps 747 mmHg 66%
    06:00 +12°C° 0 mm 2 mps 747 mmHg 65%
    07:00 +14°C° 0 mm 2 mps 747 mmHg 59%
    08:00 +15°C° 0 mm 1 mps 747 mmHg 53%
    09:00 +18°C° 0 mm 1 mps 747 mmHg 47%
    10:00 +18°C° 0 mm 2 mps 747 mmHg 44%
    11:00 +19°C° 0 mm 2 mps 747 mmHg 42%
    12:00 +20°C° 0 mm 2 mps 747 mmHg 39%
    13:00 +20°C° 0 mm 3 mps 746 mmHg 42%
    14:00 +20°C° 0 mm 4 mps 745 mmHg 44%
    15:00 +19°C° 0 mm 4 mps 745 mmHg 47%
    16:00 +18°C° 0 mm 4 mps 745 mmHg 52%
    17:00 +17°C° 0 mm 4 mps 745 mmHg 58%
    18:00 +15°C° 0 mm 4 mps 745 mmHg 63%
    19:00 +15°C° 0 mm 4 mps 745 mmHg 60%
    20:00 +17°C° 0 mm 4 mps 745 mmHg 58%
    21:00 +17°C° 0 mm 4 mps 745 mmHg 55%
    22:00 +17°C° 0 mm 4 mps 745 mmHg 54%
    23:00 +17°C° 0 mm 4 mps 744 mmHg 52%

    Mañana, 31 Marzo, Martes

    Tiempo Temperatura Precipitaciones Viento Presión Humedad
    00:00 +17°C° 0 mm 4 mps 744 mmHg 51%
    01:00 +17°C° 0.1 mm 4 mps 744 mmHg 52%
    02:00 +16°C° 0.1 mm 5 mps 744 mmHg 54%
    03:00 +16°C° 0.1 mm 5 mps 743 mmHg 55%
    04:00 +16°C° 0.1 mm 5 mps 743 mmHg 58%
    05:00 +15°C° 0.1 mm 5 mps 743 mmHg 60%
    06:00 +15°C° 0.1 mm 5 mps 743 mmHg 62%
    07:00 +16°C° 0.1 mm 5 mps 744 mmHg 59%
    08:00 +18°C° 0.1 mm 4 mps 744 mmHg 56%
    09:00 +18°C° 0.1 mm 3 mps 745 mmHg 53%
    10:00 +20°C° 0 mm 4 mps 745 mmHg 47%
    11:00 +22°C° 0 mm 4 mps 745 mmHg 42%
    12:00 +23°C° 0 mm 5 mps 745 mmHg 36%
    13:00 +25°C° 0 mm 5 mps 744 mmHg 36%
    14:00 +24°C° 0 mm 6 mps 744 mmHg 36%
    15:00 +24°C° 0 mm 7 mps 744 mmHg 37%
    16:00 +22°C° 0.2 mm 6 mps 744 mmHg 47%
    17:00 +20°C° 0.2 mm 5 mps 744 mmHg 58%
    18:00 +16°C° 0.2 mm 5 mps 744 mmHg 68%
    19:00 +17°C° 0.3 mm 4 mps 744 mmHg 69%
    20:00 +17°C° 0.3 mm 3 mps 745 mmHg 69%
    21:00 +16°C° 0.3 mm 3 mps 745 mmHg 69%
    22:00 +17°C° 0.1 mm 2 mps 745 mmHg 66%
    23:00 +17°C° 0.1 mm 2 mps 745 mmHg 63%

    Pasado mañana, 1 Abril, Miércoles

    Tiempo Temperatura Precipitaciones Viento Presión Humedad
    00:00 +17°C° 0.1 mm 2 mps 745 mmHg 60%
    01:00 +17°C° 0 mm 2 mps 745 mmHg 60%
    02:00 +16°C° 0 mm 2 mps 744 mmHg 59%
    03:00 +16°C° 0 mm 2 mps 744 mmHg 59%
    04:00 +16°C° 0 mm 2 mps 744 mmHg 59%
    05:00 +16°C° 0 mm 2 mps 744 mmHg 59%
    06:00 +15°C° 0 mm 2 mps 744 mmHg 59%
    07:00 +17°C° 0 mm 2 mps 745 mmHg 55%
    08:00 +18°C° 0 mm 2 mps 745 mmHg 52%
    09:00 +20°C° 0 mm 2 mps 745 mmHg 49%
    10:00 +20°C° 0.1 mm 3 mps 746 mmHg 53%
    11:00 +20°C° 0.1 mm 4 mps 746 mmHg 57%
    12:00 +19°C° 0.1 mm 6 mps 746 mmHg 61%
    13:00 +19°C° 0.1 mm 5 mps 746 mmHg 64%
    14:00 +18°C° 0.1 mm 4 mps 745 mmHg 68%
    15:00 +18°C° 0.1 mm 3 mps 745 mmHg 72%
    16:00 +17°C° 0 mm 2 mps 745 mmHg 74%
    17:00 +17°C° 0 mm 2 mps 745 mmHg 77%
    18:00 +16°C° 0 mm 1 mps 745 mmHg 79%
    19:00 +16°C° 0 mm 1 mps 746 mmHg 81%
    20:00 +15°C° 0 mm 1 mps 746 mmHg 82%
    21:00 +15°C° 0 mm 1 mps 747 mmHg 83%
    22:00 +15°C° 0 mm 1 mps 746 mmHg 82%
    23:00 +15°C° 0 mm 2 mps 746 mmHg 81%

    2 Abril, Jueves

    Tiempo Temperatura Precipitaciones Viento Presión Humedad
    00:00 +15°C° 0 mm 2 mps 746 mmHg 80%
    01:00 +15°C° 0 mm 2 mps 745 mmHg 79%
    02:00 +15°C° 0 mm 2 mps 745 mmHg 78%
    03:00 +14°C° 0 mm 3 mps 745 mmHg 77%
    04:00 +15°C° 0.1 mm 2 mps 745 mmHg 75%
    05:00 +15°C° 0.1 mm 2 mps 745 mmHg 73%
    06:00 +14°C° 0.1 mm 2 mps 745 mmHg 71%
    07:00 +16°C° 0 mm 1 mps 745 mmHg 65%
    08:00 +18°C° 0 mm 1 mps 745 mmHg 58%
    09:00 +20°C° 0 mm 1 mps 744 mmHg 52%
    10:00 +19°C° 0 mm 2 mps 744 mmHg 52%
    11:00 +19°C° 0 mm 2 mps 744 mmHg 52%
    12:00 +19°C° 0 mm 3 mps 744 mmHg 52%
    13:00 +19°C° 0.2 mm 3 mps 744 mmHg 56%
    14:00 +18°C° 0.2 mm 4 mps 744 mmHg 60%
    15:00 +17°C° 0.2 mm 4 mps 743 mmHg 64%
    16:00 +17°C° 0.4 mm 4 mps 744 mmHg 68%
    17:00 +15°C° 0.4 mm 4 mps 744 mmHg 72%
    18:00 +14°C° 0.4 mm 4 mps 744 mmHg 75%
    19:00 +14°C° 0.4 mm 4 mps 744 mmHg 76%
    20:00 +14°C° 0.4 mm 4 mps 745 mmHg 77%
    21:00 +13°C° 0.4 mm 4 mps 745 mmHg 78%
    22:00 +13°C° 0.3 mm 4 mps 745 mmHg 77%
    23:00 +13°C° 0.3 mm 4 mps 745 mmHg 77%

    3 Abril, Viernes

    Tiempo Temperatura Precipitaciones Viento Presión Humedad
    00:00 +12°C° 0.3 mm 4 mps 744 mmHg 76%
    01:00 +12°C° 0.4 mm 5 mps 744 mmHg 76%
    02:00 +12°C° 0.4 mm 5 mps 744 mmHg 76%
    03:00 +11°C° 0.4 mm 6 mps 744 mmHg 76%
    04:00 +11°C° 0.3 mm 6 mps 744 mmHg 77%
    05:00 +11°C° 0.3 mm 7 mps 744 mmHg 78%
    06:00 +11°C° 0.3 mm 7 mps 744 mmHg 79%
    07:00 +12°C° 0.4 mm 7 mps 745 mmHg 77%
    08:00 +14°C° 0.4 mm 7 mps 745 mmHg 74%
    09:00 +15°C° 0.4 mm 7 mps 745 mmHg 72%
    10:00 +15°C° 0.3 mm 6 mps 745 mmHg 72%
    11:00 +15°C° 0.3 mm 5 mps 746 mmHg 71%
    12:00 +16°C° 0.3 mm 5 mps 746 mmHg 70%
    13:00 +17°C° 0.2 mm 4 mps 746 mmHg 70%
    14:00 +17°C° 0.2 mm 4 mps 746 mmHg 70%
    15:00 +17°C° 0.2 mm 4 mps 746 mmHg 70%
    16:00 +15°C° 0 mm 4 mps 746 mmHg 73%
    17:00 +14°C° 0 mm 4 mps 746 mmHg 76%
    18:00 +14°C° 0 mm 4 mps 747 mmHg 79%
    19:00 +13°C° 0 mm 3 mps 747 mmHg 80%
    20:00 +13°C° 0 mm 3 mps 748 mmHg 82%
    21:00 +12°C° 0 mm 3 mps 749 mmHg 84%
    22:00 +12°C° 0 mm 3 mps 749 mmHg 84%
    23:00 +12°C° 0 mm 3 mps 749 mmHg 84%

    4 Abril, Sábado

    Tiempo Temperatura Precipitaciones Viento Presión Humedad
    00:00 +12°C° 0 mm 3 mps 749 mmHg 84%
    01:00 +12°C° 0 mm 3 mps 749 mmHg 84%
    02:00 +11°C° 0 mm 3 mps 749 mmHg 84%
    03:00 +11°C° 0 mm 3 mps 749 mmHg 83%
    04:00 +11°C° 0 mm 3 mps 749 mmHg 82%
    05:00 +11°C° 0 mm 3 mps 749 mmHg 82%
    06:00 +11°C° 0 mm 4 mps 749 mmHg 81%
    07:00 +13°C° 0 mm 4 mps 749 mmHg 74%
    08:00 +14°C° 0 mm 5 mps 749 mmHg 67%
    09:00 +15°C° 0 mm 5 mps 748 mmHg 61%
    10:00 +17°C° 0 mm 6 mps 748 mmHg 57%
    11:00 +19°C° 0 mm 6 mps 748 mmHg 54%
    12:00 +20°C° 0 mm 7 mps 748 mmHg 51%
    13:00 +20°C° 0 mm 7 mps 748 mmHg 53%
    14:00 +20°C° 0 mm 8 mps 747 mmHg 55%
    15:00 +20°C° 0 mm 8 mps 747 mmHg 57%
    16:00 +18°C° 0 mm 8 mps 747 mmHg 61%
    17:00 +17°C° 0 mm 8 mps 747 mmHg 65%
    18:00 +16°C° 0 mm 7 mps 747 mmHg 69%
    19:00 +16°C° 0 mm 7 mps 747 mmHg 66%
    20:00 +16°C° 0 mm 6 mps 748 mmHg 62%
    21:00 +16°C° 0 mm 6 mps 748 mmHg 59%
    22:00 +16°C° 0 mm 6 mps 748 mmHg 57%
    23:00 +16°C° 0 mm 5 mps 748 mmHg 55%
    Mostrar más